contact:dominique.lefevre@mio.osupytheas.fr, maurice.libes@osupytheas.fr, didier.mallarino@osupytheas.fr
Project:EMSO http://www.emso-fr.org/EMSO-France
Depth: 2436.0 m
Title:EMSO Ligure Ouest : Data MII capteur AQUADOPP
Date,Latitude,Longitude,X_East,Y_North,Z_Up,Amplitude_X,Amplitude_Y,Amplitude_Z,Batterie,SoundSpeed,Heading,Pitch,Roll,Pressure,TIS,Speed,Direction
, degrees North, degrees East, m.s-1, m.s-1,m.s-1, 1, 1, 1, Volt, m.s-1, degree, degree, degree, dbar, degree_C, m.s-1, degree
2022-11-09T00:04:03,42.805,6.029,0.019,-0.044,-0.027,101.0,101.0,101.0,13.4,1505.2,325.9,-0.8,1.8,2471.131,13.28,0.047,156.6
2022-11-09T00:07:03,42.805,6.029,0.033,-0.039,-0.001,102.0,102.0,101.0,13.4,1505.2,329.1,-0.8,1.8,2471.139,13.28,0.051,139.8
2022-11-09T00:10:03,42.805,6.029,0.003,-0.015,0.015,102.0,102.0,101.0,13.4,1505.2,321.5,-0.8,1.8,2471.159,13.28,0.015,168.7
2022-11-09T00:13:03,42.805,6.029,0.011,-0.046,0.014,103.0,102.0,101.0,13.4,1505.2,323.3,-0.7,1.8,2471.118,13.28,0.047,166.6
2022-11-09T00:16:03,42.805,6.029,0.01,-0.037,-0.015,102.0,102.0,101.0,13.4,1505.2,327.0,-0.8,1.8,2471.133,13.28,0.038,164.9
2022-11-09T00:19:03,42.805,6.029,-0.007,-0.058,-0.032,102.0,102.0,101.0,13.4,1505.2,326.3,-0.7,1.8,2471.089,13.28,0.058,186.9
2022-11-09T00:22:03,42.805,6.029,-0.009,-0.057,-0.036,102.0,101.0,101.0,13.4,1505.2,318.1,-0.7,1.8,2471.107,13.28,0.057,189.0
2022-11-09T00:25:03,42.805,6.029,-0.002,-0.065,-0.009,102.0,102.0,101.0,13.4,1505.2,332.5,-0.7,1.8,2471.112,13.28,0.065,181.8
2022-11-09T00:28:03,42.805,6.029,0.006,-0.048,-0.038,100.0,101.0,102.0,13.4,1505.2,325.3,-0.8,1.8,2471.093,13.28,0.048,172.9
2022-11-09T00:31:03,42.805,6.029,0.001,-0.04,-0.008,102.0,101.0,99.0,13.4,1505.2,329.7,-0.8,1.8,2471.098,13.29,0.04,178.6
2022-11-09T00:34:03,42.805,6.029,0.018,-0.053,-0.01,103.0,102.0,100.0,13.4,1505.2,317.8,-0.8,1.8,2471.092,13.29,0.055,161.2
2022-11-09T00:37:03,42.805,6.029,0.013,-0.046,-0.01,104.0,102.0,100.0,13.3,1505.2,322.0,-0.7,1.8,2471.091,13.29,0.047,164.2
2022-11-09T00:40:03,42.805,6.029,0.011,-0.04,-0.007,102.0,101.0,101.0,13.4,1505.2,332.1,-0.8,1.8,2471.083,13.29,0.041,164.6
2022-11-09T00:43:03,42.805,6.029,0.023,-0.036,0.006,103.0,101.0,101.0,13.3,1505.2,324.3,-0.8,1.8,2471.091,13.29,0.042,147.4
2022-11-09T00:46:03,42.805,6.029,0.025,-0.047,-0.003,102.0,102.0,100.0,13.4,1505.2,323.1,-0.8,1.8,2471.099,13.29,0.053,152.0
2022-11-09T00:49:03,42.805,6.029,-0.003,-0.021,-0.013,103.0,101.0,102.0,13.3,1505.2,325.2,-0.8,1.8,2471.085,13.29,0.021,188.1
2022-11-09T00:52:03,42.805,6.029,0.035,-0.055,0.006,102.0,103.0,101.0,13.4,1505.2,325.3,-0.8,1.8,2471.096,13.29,0.065,147.5
2022-11-09T00:55:03,42.805,6.029,0.005,-0.046,0.024,102.0,102.0,102.0,13.3,1505.2,332.7,-0.8,1.8,2471.105,13.29,0.046,173.8
2022-11-09T00:58:03,42.805,6.029,0.006,-0.051,-0.057,102.0,102.0,100.0,13.4,1505.2,316.4,-0.8,1.8,2471.104,13.29,0.051,173.3
2022-11-09T01:04:03,42.805,6.029,-0.013,-0.022,0.009,104.0,105.0,103.0,13.4,1505.2,328.0,-0.7,1.8,2471.096,13.28,0.025,210.6
2022-11-09T01:07:03,42.805,6.029,0.026,-0.027,0.019,103.0,102.0,102.0,13.4,1505.2,327.7,-0.8,1.8,2471.143,13.28,0.037,136.1
2022-11-09T01:10:03,42.805,6.029,-0.002,-0.05,-0.004,102.0,101.0,101.0,13.4,1505.2,326.9,-0.8,1.8,2471.098,13.28,0.05,182.3
2022-11-09T01:13:03,42.805,6.029,0.007,-0.038,0.013,103.0,102.0,101.0,13.3,1505.2,319.4,-0.8,1.8,2471.116,13.28,0.038,169.6
2022-11-09T01:16:03,42.805,6.029,0.006,-0.036,-0.011,102.0,101.0,100.0,13.4,1505.2,329.3,-0.7,1.8,2471.074,13.28,0.036,170.5
2022-11-09T01:19:03,42.805,6.029,0.004,-0.048,-0.014,102.0,102.0,102.0,13.4,1505.2,335.1,-0.8,1.8,2471.111,13.28,0.048,175.2
2022-11-09T01:22:03,42.805,6.029,0.006,-0.035,-0.011,103.0,101.0,101.0,13.4,1505.2,315.9,-0.8,1.8,2471.108,13.29,0.035,170.3
2022-11-09T01:25:03,42.805,6.029,0.014,-0.029,0.007,102.0,102.0,100.0,13.4,1505.2,320.7,-0.7,1.8,2471.132,13.29,0.032,154.2
2022-11-09T01:28:03,42.805,6.029,0.003,-0.033,0.002,102.0,102.0,101.0,13.4,1505.2,331.0,-0.7,1.8,2471.093,13.29,0.033,174.8
2022-11-09T01:31:03,42.805,6.029,-0.005,-0.031,0.033,102.0,102.0,101.0,13.3,1505.2,320.4,-0.8,1.9,2471.122,13.29,0.031,189.2
2022-11-09T01:34:03,42.805,6.029,0.015,-0.046,-0.007,102.0,102.0,101.0,13.4,1505.2,323.7,-0.7,1.8,2471.095,13.29,0.048,161.9
2022-11-09T01:37:03,42.805,6.029,0.005,-0.029,0.034,102.0,101.0,101.0,13.3,1505.2,322.8,-0.7,1.9,2471.062,13.29,0.029,170.2
2022-11-09T01:40:03,42.805,6.029,0.014,-0.036,-0.007,100.0,103.0,101.0,13.3,1505.2,322.8,-0.8,1.8,2471.083,13.29,0.038,158.8
2022-11-09T01:43:03,42.805,6.029,0.017,-0.038,-0.012,102.0,102.0,100.0,13.4,1505.2,328.1,-0.7,1.8,2471.05,13.29,0.041,155.9
2022-11-09T01:46:03,42.805,6.029,-0.016,-0.013,-0.011,102.0,102.0,100.0,13.4,1505.2,327.5,-0.7,1.8,2471.087,13.29,0.02,230.9
2022-11-09T01:49:03,42.805,6.029,0.02,-0.063,-0.02,102.0,102.0,100.0,13.4,1505.2,326.7,-0.8,1.8,2471.083,13.29,0.066,162.4
2022-11-09T01:52:03,42.805,6.029,-0.017,-0.03,0.014,102.0,101.0,101.0,13.4,1505.2,318.8,-0.8,1.8,2471.087,13.29,0.034,209.5
2022-11-09T01:55:03,42.805,6.029,-0.018,-0.028,-0.024,102.0,102.0,101.0,13.4,1505.2,332.3,-0.8,1.8,2471.044,13.29,0.033,212.7
2022-11-09T01:58:03,42.805,6.029,0.002,-0.048,-0.017,101.0,102.0,101.0,13.4,1505.2,325.2,-0.7,1.8,2471.078,13.29,0.048,177.6
2022-11-09T02:04:03,42.805,6.029,-0.024,-0.012,-0.023,102.0,102.0,100.0,13.4,1505.2,323.8,-0.7,1.8,2471.14,13.28,0.026,243.4
2022-11-09T02:07:03,42.805,6.029,-0.005,-0.047,-0.043,101.0,102.0,101.0,13.4,1505.2,318.8,-0.7,1.8,2471.101,13.28,0.047,186.1
2022-11-09T02:10:03,42.805,6.029,-0.004,-0.036,-0.052,101.0,102.0,101.0,13.3,1505.2,322.0,-0.8,1.8,2471.082,13.28,0.036,186.3
2022-11-09T02:13:03,42.805,6.029,-0.015,-0.042,-0.015,102.0,102.0,103.0,13.4,1505.2,333.4,-0.8,1.8,2471.1,13.28,0.044,199.6
2022-11-09T02:16:03,42.805,6.029,0.007,-0.03,-0.03,103.0,101.0,100.0,13.3,1505.2,324.5,-0.8,1.8,2471.103,13.28,0.03,166.9
2022-11-09T02:19:03,42.805,6.029,-0.017,-0.023,-0.035,103.0,102.0,101.0,13.4,1505.2,333.4,-0.8,1.8,2471.084,13.29,0.028,216.5
2022-11-09T02:22:03,42.805,6.029,-0.013,-0.026,-0.015,102.0,102.0,101.0,13.4,1505.2,325.1,-0.8,1.8,2471.089,13.29,0.029,206.6
2022-11-09T02:25:03,42.805,6.029,0.0,-0.023,0.0,103.0,101.0,101.0,13.4,1505.2,326.7,-0.8,1.8,2471.114,13.29,0.023,180.0
2022-11-09T02:28:03,42.805,6.029,0.007,-0.04,-0.004,101.0,103.0,101.0,13.4,1505.2,326.3,-0.7,1.8,2471.117,13.29,0.04,170.1
2022-11-09T02:31:03,42.805,6.029,-0.002,-0.029,-0.013,102.0,102.0,101.0,13.4,1505.2,329.0,-0.7,1.8,2471.074,13.29,0.029,183.9
2022-11-09T02:34:03,42.805,6.029,0.009,-0.02,-0.008,102.0,103.0,100.0,13.4,1505.2,330.0,-0.7,1.8,2471.071,13.29,0.021,155.8
2022-11-09T02:37:03,42.805,6.029,-0.006,-0.043,-0.007,102.0,102.0,101.0,13.4,1505.2,327.1,-0.8,1.8,2471.081,13.29,0.043,187.9
2022-11-09T02:40:03,42.805,6.029,0.009,-0.013,-0.012,103.0,102.0,101.0,13.4,1505.2,328.9,-0.7,1.8,2471.138,13.29,0.015,145.3
2022-11-09T02:43:03,42.805,6.029,-0.008,-0.031,-0.011,103.0,102.0,102.0,13.4,1505.2,321.7,-0.8,1.8,2471.097,13.29,0.032,194.5
2022-11-09T02:46:03,42.805,6.029,-0.004,-0.024,-0.033,103.0,102.0,101.0,13.3,1505.2,321.5,-0.7,1.8,2471.044,13.29,0.024,189.5
2022-11-09T02:49:03,42.805,6.029,0.015,-0.01,0.009,101.0,103.0,101.0,13.3,1505.2,322.5,-0.8,1.8,2471.134,13.29,0.018,123.7
2022-11-09T02:52:03,42.805,6.029,0.004,-0.031,0.003,103.0,102.0,101.0,13.3,1505.2,333.1,-0.7,1.8,2471.073,13.29,0.031,172.7
2022-11-09T02:55:03,42.805,6.029,0.01,-0.014,0.007,100.0,103.0,100.0,13.4,1505.2,335.4,-0.7,1.8,2471.087,13.29,0.017,144.5
2022-11-09T02:58:03,42.805,6.029,-0.018,-0.019,-0.013,101.0,101.0,102.0,13.4,1505.2,331.0,-0.7,1.8,2471.079,13.29,0.026,223.5
2022-11-09T03:04:03,42.805,6.029,0.028,-0.041,-0.023,102.0,102.0,101.0,13.3,1505.2,325.0,-0.8,1.8,2471.113,13.28,0.049,145.7
2022-11-09T03:07:03,42.805,6.029,0.01,-0.037,0.007,102.0,102.0,101.0,13.4,1505.2,329.0,-0.8,1.8,2471.185,13.28,0.038,164.9
2022-11-09T03:10:03,42.805,6.029,-0.003,-0.027,-0.01,103.0,102.0,101.0,13.3,1505.2,319.9,-0.8,1.8,2471.103,13.28,0.027,186.3
2022-11-09T03:13:03,42.805,6.029,-0.022,-0.036,-0.026,103.0,102.0,101.0,13.4,1505.2,331.0,-0.8,1.8,2471.14,13.28,0.042,211.4
2022-11-09T03:16:03,42.805,6.029,-0.014,-0.034,-0.021,102.0,103.0,102.0,13.3,1505.2,334.1,-0.8,1.8,2471.118,13.29,0.036,202.4
2022-11-09T03:19:03,42.805,6.029,-0.026,-0.029,-0.028,103.0,102.0,101.0,13.3,1505.2,334.0,-0.7,1.8,2471.103,13.29,0.038,221.9
2022-11-09T03:22:03,42.805,6.029,0.013,-0.024,-0.012,103.0,103.0,101.0,13.4,1505.2,334.4,-0.8,1.8,2471.085,13.29,0.027,151.6
2022-11-09T03:25:03,42.805,6.029,-0.005,-0.03,0.002,102.0,103.0,102.0,13.4,1505.2,334.7,-0.8,1.8,2471.168,13.29,0.03,189.5
2022-11-09T03:28:03,42.805,6.029,-0.008,-0.036,-0.007,102.0,102.0,102.0,13.3,1505.2,332.7,-0.7,1.9,2471.116,13.29,0.036,192.5
2022-11-09T03:31:03,42.805,6.029,-0.007,-0.034,-0.014,102.0,103.0,102.0,13.4,1505.2,331.5,-0.8,1.8,2471.085,13.29,0.034,191.6
2022-11-09T03:34:03,42.805,6.029,0.001,-0.033,-0.004,103.0,101.0,101.0,13.4,1505.2,325.2,-0.8,1.8,2471.133,13.29,0.033,178.3
2022-11-09T03:37:03,42.805,6.029,-0.015,-0.006,0.027,101.0,102.0,101.0,13.4,1505.2,323.3,-0.8,1.8,2471.09,13.29,0.016,248.2
2022-11-09T03:40:03,42.805,6.029,0.014,-0.007,-0.018,104.0,103.0,101.0,13.4,1505.2,324.5,-0.8,1.8,2471.1,13.29,0.015,116.6
2022-11-09T03:43:03,42.805,6.029,-0.02,-0.03,0.0,102.0,101.0,102.0,13.3,1505.2,322.7,-0.7,1.8,2471.117,13.29,0.036,213.7
2022-11-09T03:46:03,42.805,6.029,-0.007,-0.02,0.002,102.0,103.0,101.0,13.4,1505.2,317.6,-0.8,1.8,2471.12,13.29,0.021,199.3
2022-11-09T03:49:03,42.805,6.029,-0.015,-0.013,0.0,103.0,103.0,100.0,13.4,1505.2,323.3,-0.7,1.8,2471.113,13.29,0.019,229.1
2022-11-09T03:52:03,42.805,6.029,-0.002,-0.015,-0.005,104.0,102.0,101.0,13.4,1505.2,328.7,-0.8,1.8,2471.09,13.29,0.015,187.6
2022-11-09T03:55:03,42.805,6.029,-0.019,-0.007,0.005,102.0,103.0,100.0,13.4,1505.2,331.0,-0.7,1.8,2471.162,13.29,0.02,249.8
2022-11-09T03:58:03,42.805,6.029,-0.017,-0.035,-0.032,103.0,101.0,102.0,13.4,1505.2,332.5,-0.8,1.8,2471.14,13.29,0.038,205.9
2022-11-09T04:04:03,42.805,6.029,0.026,-0.02,-0.011,103.0,102.0,102.0,13.3,1505.2,324.3,-0.7,1.8,2471.165,13.28,0.032,127.6
2022-11-09T04:07:03,42.805,6.029,0.011,-0.025,0.0,103.0,102.0,100.0,13.4,1505.2,327.1,-0.8,1.8,2471.177,13.28,0.027,156.3
2022-11-09T04:10:03,42.805,6.029,0.015,-0.029,-0.025,103.0,103.0,101.0,13.3,1505.2,322.1,-0.7,1.8,2471.193,13.29,0.032,152.6
2022-11-09T04:13:03,42.805,6.029,0.001,-0.044,0.0,102.0,102.0,102.0,13.4,1505.2,316.8,-0.8,1.8,2471.121,13.29,0.044,178.7
2022-11-09T04:16:03,42.805,6.029,0.012,-0.045,-0.036,102.0,102.0,101.0,13.4,1505.2,324.1,-0.8,1.8,2471.146,13.29,0.046,165.1
2022-11-09T04:19:03,42.805,6.029,0.011,-0.035,0.008,102.0,103.0,100.0,13.4,1505.2,322.8,-0.7,1.8,2471.209,13.29,0.036,162.6
2022-11-09T04:22:03,42.805,6.029,0.017,-0.041,0.004,103.0,103.0,101.0,13.4,1505.2,322.2,-0.7,1.8,2471.193,13.29,0.044,157.5
2022-11-09T04:25:03,42.805,6.029,-0.021,-0.018,-0.02,102.0,102.0,101.0,13.3,1505.2,330.3,-0.8,1.8,2471.201,13.29,0.027,229.4
2022-11-09T04:28:03,42.805,6.029,0.019,-0.025,-0.016,103.0,100.0,101.0,13.4,1505.2,318.3,-0.7,1.8,2471.171,13.29,0.031,142.8
2022-11-09T04:31:03,42.805,6.029,-0.002,-0.016,0.01,103.0,103.0,100.0,13.4,1505.2,330.7,-0.8,1.8,2471.168,13.29,0.016,187.1
2022-11-09T04:34:03,42.805,6.029,0.002,-0.04,-0.007,101.0,103.0,101.0,13.3,1505.2,326.9,-0.8,1.8,2471.182,13.29,0.04,177.1
2022-11-09T04:37:03,42.805,6.029,0.0,-0.016,-0.014,102.0,102.0,101.0,13.4,1505.2,334.0,-0.8,1.8,2471.143,13.29,0.016,180.0
2022-11-09T04:40:03,42.805,6.029,-0.018,-0.038,-0.024,101.0,102.0,101.0,13.4,1505.2,323.3,-0.8,1.8,2471.187,13.29,0.042,205.3
2022-11-09T04:43:03,42.805,6.029,-0.005,-0.033,0.0,101.0,101.0,101.0,13.4,1505.2,321.0,-0.8,1.8,2471.176,13.29,0.033,188.6
2022-11-09T04:46:03,42.805,6.029,0.005,-0.016,-0.006,103.0,102.0,101.0,13.4,1505.2,329.6,-0.8,1.8,2471.205,13.29,0.016,162.6
2022-11-09T04:49:03,42.805,6.029,-0.001,-0.026,-0.01,102.0,102.0,101.0,13.4,1505.2,335.7,-0.8,1.8,2471.175,13.29,0.026,182.2
2022-11-09T04:52:03,42.805,6.029,-0.001,-0.04,-0.007,102.0,102.0,101.0,13.4,1505.2,319.0,-0.8,1.8,2471.195,13.29,0.04,181.4
2022-11-09T04:55:03,42.805,6.029,0.009,-0.024,-0.018,101.0,102.0,101.0,13.4,1505.2,329.4,-0.7,1.9,2471.226,13.29,0.025,159.4
2022-11-09T04:58:03,42.805,6.029,-0.011,-0.032,-0.011,103.0,102.0,100.0,13.4,1505.2,318.0,-0.7,1.8,2471.182,13.29,0.033,199.0
2022-11-09T05:04:03,42.805,6.029,0.004,-0.017,-0.002,102.0,102.0,101.0,13.4,1505.2,328.3,-0.8,1.8,2471.241,13.28,0.017,166.8
2022-11-09T05:07:03,42.805,6.029,0.02,-0.038,-0.004,101.0,102.0,101.0,13.3,1505.2,327.3,-0.8,1.8,2471.249,13.28,0.042,152.2
2022-11-09T05:10:03,42.805,6.029,0.005,-0.023,-0.009,102.0,102.0,101.0,13.4,1505.2,326.3,-0.8,1.8,2471.24,13.28,0.023,167.7
2022-11-09T05:13:03,42.805,6.029,-0.01,-0.033,-0.031,102.0,102.0,102.0,13.4,1505.2,328.7,-0.7,1.8,2471.234,13.28,0.034,196.9
2022-11-09T05:16:03,42.805,6.029,-0.003,-0.008,0.013,101.0,103.0,100.0,13.3,1505.2,320.1,-0.8,1.8,2471.228,13.29,0.008,200.6
2022-11-09T05:19:03,42.805,6.029,-0.016,-0.049,-0.013,104.0,102.0,101.0,13.3,1505.2,319.0,-0.8,1.8,2471.226,13.29,0.051,198.1
2022-11-09T05:22:03,42.805,6.029,-0.004,-0.039,-0.002,102.0,103.0,101.0,13.3,1505.2,336.7,-0.8,1.8,2471.223,13.29,0.039,185.9
2022-11-09T05:25:03,42.805,6.029,0.04,-0.038,0.011,102.0,102.0,101.0,13.4,1505.2,331.0,-0.8,1.8,2471.226,13.29,0.055,133.5
2022-11-09T05:28:03,42.805,6.029,0.022,-0.029,0.013,100.0,102.0,101.0,13.4,1505.2,324.2,-0.7,1.8,2471.215,13.29,0.036,142.8
2022-11-09T05:31:03,42.805,6.029,0.01,-0.032,0.015,101.0,102.0,101.0,13.3,1505.2,331.3,-0.7,1.8,2471.223,13.29,0.033,162.6
2022-11-09T05:34:03,42.805,6.029,0.02,-0.029,-0.006,102.0,102.0,101.0,13.4,1505.2,319.1,-0.8,1.8,2471.244,13.29,0.035,145.4
2022-11-09T05:37:03,42.805,6.029,-0.008,-0.037,-0.024,102.0,101.0,101.0,13.3,1505.2,317.8,-0.7,1.8,2471.238,13.29,0.037,192.2
2022-11-09T05:40:03,42.805,6.029,0.009,-0.009,0.0,102.0,102.0,101.0,13.4,1505.2,318.9,-0.8,1.8,2471.221,13.29,0.012,135.0
2022-11-09T05:43:03,42.805,6.029,-0.011,-0.037,-0.007,102.0,102.0,101.0,13.3,1505.2,331.6,-0.8,1.8,2471.233,13.29,0.038,196.6
2022-11-09T05:46:03,42.805,6.029,-0.005,-0.016,0.004,102.0,101.0,101.0,13.4,1505.2,327.0,-0.8,1.8,2471.244,13.29,0.016,197.4
2022-11-09T05:49:03,42.805,6.029,-0.004,-0.046,-0.025,102.0,102.0,101.0,13.4,1505.2,326.3,-0.8,1.8,2471.265,13.29,0.046,185.0
2022-11-09T05:52:03,42.805,6.029,0.018,-0.024,0.014,102.0,101.0,101.0,13.4,1505.2,320.1,-0.8,1.8,2471.247,13.29,0.03,143.1
2022-11-09T05:55:03,42.805,6.029,-0.016,-0.019,0.001,105.0,101.0,101.0,13.3,1505.2,322.6,-0.7,1.8,2471.266,13.29,0.024,220.1
2022-11-09T05:58:03,42.805,6.029,0.003,-0.016,-0.034,102.0,102.0,100.0,13.4,1505.2,322.3,-0.7,1.8,2471.256,13.29,0.016,169.4
2022-11-09T06:04:03,42.805,6.029,-0.006,-0.032,-0.023,103.0,101.0,101.0,13.4,1505.2,328.2,-0.7,1.8,2471.315,13.28,0.032,190.6
2022-11-09T06:07:03,42.805,6.029,-0.001,-0.043,-0.005,101.0,102.0,100.0,13.3,1505.2,327.3,-0.7,1.8,2471.285,13.28,0.043,181.3
2022-11-09T06:10:03,42.805,6.029,-0.002,-0.025,0.018,102.0,103.0,100.0,13.4,1505.2,328.7,-0.8,1.8,2471.312,13.28,0.025,184.6
2022-11-09T06:13:03,42.805,6.029,0.009,-0.053,-0.028,103.0,101.0,100.0,13.4,1505.2,321.3,-0.8,1.8,2471.296,13.28,0.053,170.4
2022-11-09T06:16:03,42.805,6.029,0.003,-0.022,0.03,102.0,102.0,101.0,13.3,1505.2,320.2,-0.7,1.8,2471.304,13.29,0.022,172.2
2022-11-09T06:19:03,42.805,6.029,0.006,-0.039,-0.03,102.0,101.0,102.0,13.4,1505.2,330.7,-0.8,1.8,2471.287,13.29,0.039,171.3
2022-11-09T06:22:03,42.805,6.029,0.014,-0.04,0.009,100.0,101.0,101.0,13.4,1505.2,327.9,-0.8,1.8,2471.293,13.29,0.042,160.7
2022-11-09T06:25:03,42.805,6.029,0.014,-0.042,-0.012,101.0,103.0,101.0,13.4,1505.2,326.1,-0.7,1.8,2471.321,13.29,0.044,161.6
2022-11-09T06:28:03,42.805,6.029,0.002,-0.042,-0.008,101.0,102.0,102.0,13.4,1505.2,326.6,-0.8,1.8,2471.243,13.29,0.042,177.3
2022-11-09T06:31:03,42.805,6.029,0.024,-0.046,-0.025,102.0,102.0,101.0,13.4,1505.2,333.7,-0.8,1.8,2471.297,13.29,0.051,152.4
2022-11-09T06:34:03,42.805,6.029,0.001,-0.033,0.006,101.0,102.0,102.0,13.4,1505.2,335.4,-0.8,1.8,2471.297,13.29,0.033,178.3
2022-11-09T06:37:03,42.805,6.029,0.018,-0.035,0.001,103.0,101.0,101.0,13.3,1505.2,327.1,-0.8,1.8,2471.266,13.29,0.039,152.8
2022-11-09T06:40:03,42.805,6.029,0.008,-0.038,0.008,102.0,102.0,101.0,13.3,1505.2,321.2,-0.8,1.8,2471.318,13.29,0.038,168.1
2022-11-09T06:43:03,42.805,6.029,0.006,-0.033,0.008,103.0,102.0,101.0,13.4,1505.2,328.5,-0.7,1.8,2471.274,13.29,0.033,169.7
2022-11-09T06:46:03,42.805,6.029,-0.001,-0.028,0.007,101.0,101.0,101.0,13.4,1505.2,318.6,-0.7,1.8,2471.273,13.29,0.028,182.0
2022-11-09T06:49:03,42.805,6.029,0.017,-0.022,0.031,103.0,101.0,100.0,13.3,1505.2,326.1,-0.8,1.8,2471.273,13.29,0.027,142.3
2022-11-09T06:52:03,42.805,6.029,-0.005,-0.02,-0.01,103.0,101.0,102.0,13.4,1505.2,331.8,-0.8,1.8,2471.312,13.29,0.02,194.0
2022-11-09T06:55:03,42.805,6.029,0.016,-0.024,-0.001,101.0,102.0,101.0,13.4,1505.2,320.8,-0.8,1.8,2471.302,13.29,0.028,146.3
2022-11-09T06:58:03,42.805,6.029,0.015,-0.033,-0.003,101.0,103.0,101.0,13.4,1505.2,332.3,-0.8,1.8,2471.297,13.29,0.036,155.6
2022-11-09T07:04:03,42.805,6.029,0.003,-0.041,0.013,102.0,102.0,101.0,13.4,1505.2,325.6,-0.8,1.8,2471.377,13.28,0.041,175.8
2022-11-09T07:07:03,42.805,6.029,0.03,-0.039,0.021,102.0,102.0,101.0,13.4,1505.2,323.3,-0.8,1.9,2471.319,13.28,0.049,142.4
2022-11-09T07:10:03,42.805,6.029,0.006,-0.011,0.012,101.0,103.0,102.0,13.3,1505.2,332.3,-0.8,1.8,2471.326,13.28,0.012,151.4
2022-11-09T07:13:03,42.805,6.029,0.013,-0.035,0.002,101.0,102.0,102.0,13.4,1505.2,317.2,-0.8,1.8,2471.312,13.28,0.037,159.6
2022-11-09T07:16:03,42.805,6.029,0.003,-0.019,-0.005,102.0,102.0,101.0,13.4,1505.2,325.2,-0.8,1.8,2471.329,13.29,0.019,171.0
2022-11-09T07:19:03,42.805,6.029,0.018,-0.025,0.007,101.0,103.0,102.0,13.3,1505.2,324.6,-0.7,1.8,2471.331,13.29,0.03,144.2
2022-11-09T07:22:03,42.805,6.029,0.008,-0.026,0.001,102.0,101.0,101.0,13.4,1505.2,333.7,-0.8,1.8,2471.319,13.29,0.027,162.9
2022-11-09T07:25:03,42.805,6.029,0.021,-0.025,0.034,101.0,103.0,100.0,13.3,1505.2,329.6,-0.8,1.8,2471.32,13.29,0.032,140.0
2022-11-09T07:28:03,42.805,6.029,0.006,-0.023,0.007,104.0,102.0,100.0,13.4,1505.2,333.7,-0.8,1.9,2471.34,13.29,0.023,165.4
2022-11-09T07:31:03,42.805,6.029,0.021,-0.026,0.002,101.0,101.0,102.0,13.4,1505.2,322.0,-0.7,1.8,2471.348,13.29,0.033,141.1
2022-11-09T07:34:03,42.805,6.029,0.017,-0.026,0.003,102.0,102.0,101.0,13.4,1505.2,319.0,-0.8,1.8,2471.346,13.29,0.031,146.8
2022-11-09T07:37:03,42.805,6.029,-0.002,-0.029,-0.056,103.0,101.0,102.0,13.4,1505.2,331.8,-0.8,1.8,2471.331,13.29,0.029,183.9
2022-11-09T07:40:03,42.805,6.029,0.011,-0.038,-0.025,103.0,101.0,101.0,13.4,1505.2,325.2,-0.8,1.8,2471.29,13.29,0.039,163.9
2022-11-09T07:43:03,42.805,6.029,0.019,-0.026,-0.005,103.0,102.0,101.0,13.3,1505.2,323.1,-0.8,1.8,2471.316,13.29,0.032,143.8
2022-11-09T07:46:03,42.805,6.029,0.005,-0.025,-0.004,102.0,103.0,102.0,13.4,1505.2,319.4,-0.7,1.8,2471.328,13.29,0.025,168.7
2022-11-09T07:49:03,42.805,6.029,-0.001,-0.039,0.018,103.0,102.0,101.0,13.4,1505.2,325.4,-0.8,1.8,2471.284,13.29,0.039,181.5
2022-11-09T07:52:03,42.805,6.029,0.013,-0.041,-0.025,102.0,103.0,101.0,13.4,1505.2,330.8,-0.8,1.8,2471.313,13.29,0.043,162.4
2022-11-09T07:55:03,42.805,6.029,0.013,-0.039,0.026,103.0,102.0,100.0,13.3,1505.2,318.1,-0.8,1.8,2471.323,13.29,0.041,161.6
2022-11-09T07:58:03,42.805,6.029,-0.023,-0.028,0.003,102.0,102.0,101.0,13.3,1505.2,328.0,-0.7,1.8,2471.32,13.29,0.036,219.4
2022-11-09T08:04:03,42.805,6.029,0.019,-0.028,0.039,102.0,102.0,101.0,13.3,1505.2,317.3,-0.8,1.8,2471.336,13.28,0.033,145.8
2022-11-09T08:07:03,42.805,6.029,-0.011,-0.036,-0.042,101.0,102.0,101.0,13.4,1505.2,323.3,-0.7,1.8,2471.351,13.28,0.037,197.0
2022-11-09T08:10:03,42.805,6.029,0.006,-0.038,0.011,102.0,101.0,101.0,13.4,1505.2,329.5,-0.7,1.8,2471.36,13.28,0.038,171.0
2022-11-09T08:13:03,42.805,6.029,0.008,-0.052,0.01,102.0,102.0,102.0,13.4,1505.2,332.8,-0.8,1.8,2471.304,13.28,0.052,171.3
2022-11-09T08:16:03,42.805,6.029,-0.008,-0.017,0.0,103.0,102.0,101.0,13.4,1505.2,325.7,-0.7,1.8,2471.316,13.29,0.018,205.2
2022-11-09T08:19:03,42.805,6.029,-0.022,-0.019,0.002,102.0,102.0,100.0,13.4,1505.2,329.9,-0.7,1.8,2471.303,13.29,0.029,229.2
2022-11-09T08:22:03,42.805,6.029,0.002,-0.025,-0.026,101.0,101.0,101.0,13.4,1505.2,326.3,-0.7,1.8,2471.329,13.29,0.025,175.4
2022-11-09T08:25:03,42.805,6.029,-0.003,-0.041,-0.021,103.0,102.0,101.0,13.4,1505.2,321.4,-0.8,1.8,2471.288,13.29,0.041,184.2
2022-11-09T08:28:03,42.805,6.029,0.014,-0.037,-0.022,102.0,102.0,101.0,13.3,1505.2,316.3,-0.7,1.8,2471.294,13.29,0.039,159.3
2022-11-09T08:31:03,42.805,6.029,0.008,-0.039,0.009,102.0,103.0,101.0,13.4,1505.2,328.9,-0.8,1.8,2471.33,13.29,0.039,168.4
2022-11-09T08:34:03,42.805,6.029,-0.001,-0.029,-0.006,101.0,102.0,102.0,13.4,1505.2,334.1,-0.7,1.8,2471.304,13.29,0.029,182.0
2022-11-09T08:37:03,42.805,6.029,0.016,-0.017,-0.007,102.0,102.0,101.0,13.4,1505.2,316.3,-0.7,1.8,2471.32,13.29,0.023,136.7
2022-11-09T08:40:03,42.805,6.029,0.006,-0.017,-0.021,103.0,101.0,101.0,13.4,1505.2,321.2,-0.8,1.8,2471.307,13.29,0.018,160.6
2022-11-09T08:43:03,42.805,6.029,0.011,-0.042,0.034,102.0,102.0,101.0,13.4,1505.2,317.2,-0.8,1.8,2471.308,13.29,0.043,165.3
2022-11-09T08:46:03,42.805,6.029,0.01,-0.038,0.012,104.0,103.0,100.0,13.3,1505.2,331.2,-0.8,1.8,2471.29,13.29,0.039,165.3
2022-11-09T08:49:03,42.805,6.029,0.007,-0.04,-0.02,102.0,102.0,102.0,13.3,1505.2,323.5,-0.7,1.8,2471.341,13.29,0.04,170.1
2022-11-09T08:52:03,42.805,6.029,0.017,-0.044,-0.023,101.0,102.0,101.0,13.3,1505.2,317.2,-0.7,1.8,2471.277,13.29,0.047,158.9
2022-11-09T08:55:03,42.805,6.029,0.006,-0.056,-0.016,103.0,102.0,101.0,13.4,1505.2,332.3,-0.8,1.9,2471.281,13.29,0.056,173.9
2022-11-09T08:58:03,42.805,6.029,-0.013,-0.027,-0.013,103.0,102.0,101.0,13.4,1505.2,329.4,-0.8,1.8,2471.251,13.29,0.029,205.7
2022-11-09T09:04:03,42.805,6.029,-0.01,-0.023,0.0,103.0,102.0,102.0,13.4,1505.2,324.4,-0.8,1.8,2471.326,13.28,0.025,203.5
2022-11-09T09:07:03,42.805,6.029,-0.03,-0.021,-0.03,102.0,102.0,102.0,13.4,1505.2,330.3,-0.8,1.8,2471.337,13.28,0.036,235.0
2022-11-09T09:10:03,42.805,6.029,0.003,-0.034,-0.025,102.0,103.0,102.0,13.4,1505.2,324.8,-0.8,1.9,2471.266,13.28,0.034,175.0
2022-11-09T09:13:03,42.805,6.029,-0.005,-0.02,0.015,101.0,102.0,102.0,13.4,1505.2,329.1,-0.8,1.8,2471.269,13.28,0.02,194.0
2022-11-09T09:16:03,42.805,6.029,0.016,-0.035,0.021,102.0,102.0,102.0,13.3,1505.2,318.6,-0.7,1.8,2471.292,13.29,0.038,155.4
2022-11-09T09:19:03,42.805,6.029,0.01,-0.04,0.007,102.0,102.0,102.0,13.4,1505.2,331.5,-0.8,1.8,2471.309,13.29,0.041,166.0
2022-11-09T09:22:03,42.805,6.029,0.0,-0.046,-0.007,103.0,102.0,102.0,13.3,1505.2,328.5,-0.8,1.8,2471.257,13.29,0.046,180.0
2022-11-09T09:25:03,42.805,6.029,0.003,-0.03,-0.003,104.0,103.0,100.0,13.4,1505.2,323.5,-0.7,1.8,2471.312,13.29,0.03,174.3
2022-11-09T09:28:03,42.805,6.029,0.01,-0.035,-0.025,102.0,103.0,101.0,13.3,1505.2,321.5,-0.7,1.9,2471.285,13.29,0.036,164.1
2022-11-09T09:31:03,42.805,6.029,-0.005,-0.037,-0.013,103.0,103.0,101.0,13.4,1505.2,328.7,-0.8,1.8,2471.284,13.29,0.037,187.7
2022-11-09T09:34:03,42.805,6.029,-0.005,-0.028,-0.018,103.0,102.0,101.0,13.3,1505.2,319.4,-0.8,1.8,2471.295,13.29,0.028,190.1
2022-11-09T09:37:03,42.805,6.029,0.024,-0.053,-0.011,101.0,102.0,102.0,13.3,1505.2,327.3,-0.8,1.8,2471.266,13.29,0.058,155.6
2022-11-09T09:40:03,42.805,6.029,0.015,-0.031,-0.003,102.0,101.0,101.0,13.4,1505.2,317.8,-0.8,1.8,2471.283,13.29,0.034,154.2
2022-11-09T09:43:03,42.805,6.029,0.004,-0.036,-0.005,102.0,102.0,101.0,13.3,1505.2,327.5,-0.8,1.8,2471.29,13.29,0.036,173.7
2022-11-09T09:46:03,42.805,6.029,-0.016,-0.042,-0.019,103.0,102.0,101.0,13.3,1505.2,325.7,-0.8,1.8,2471.257,13.29,0.044,200.9
2022-11-09T09:49:03,42.805,6.029,-0.006,-0.029,-0.008,102.0,103.0,100.0,13.4,1505.2,320.6,-0.8,1.8,2471.296,13.29,0.029,191.7
2022-11-09T09:52:03,42.805,6.029,-0.003,-0.033,0.01,102.0,101.0,101.0,13.4,1505.2,331.2,-0.8,1.8,2471.249,13.29,0.033,185.2